GW6037 Weather Reports


time (UTC)temp
C
wind
direction
speed
KPH
gust
KPH
rain 1hr
cm
rain 24hr
cm
rain mn
cm
humidity
%
barometer
mb
20260504201553 29 21 11.3 19.3 0.00 0.00 0.00 77 1016.3
20260504200100 29 21 11.3 19.3 0.00 0.00 0.00 76 1016.3
20260504194553 28 339 11.3 20.9 0.00 0.00 0.00 76 1016.3
20260504193054 29 12 12.9 20.9 0.00 0.00 0.00 76 1016.4
20260504191559 29 329 12.9 19.3 0.00 0.00 0.00 75 1016.4
20260504190107 29 360 14.5 20.9 0.00 0.00 0.00 75 1016.4
20260504184610 30 330 9.7 19.3 0.00 0.00 0.00 68 1016.5
20260504183052 30 11 12.9 19.3 0.00 0.00 0.00 71 1016.6
20260504181550 30 315 11.3 25.7 0.00 0.00 0.00 69 1016.8
20260504180051 30 19 14.5 22.5 0.00 0.00 0.00 72 1017.0
20260504174552 30 340 11.3 17.7 0.00 0.00 0.00 73 1017.1
20260504173056 30 19 9.7 20.9 0.00 0.00 0.00 74 1017.3
20260504171550 30 341 9.7 22.5 0.00 0.00 0.00 74 1017.6
20260504170109 28 304 14.5 22.5 0.00 0.00 0.00 75 1017.6
20260504081552 22 105 1.6 6.4 0.00 0.00 0.00 86 1017.3
20260504044553 23 117 3.2 3.2 0.00 0.00 0.00 82 1018.2
20260504043055 23 179 3.2 6.4 0.00 0.00 0.00 82 1018.5
20260504041554 24 146 3.2 4.8 0.00 0.00 0.00 82 1018.7
20260504040106 24 113 0.0 4.8 0.00 0.00 0.00 82 1018.8
20260504034559 24 95 3.2 6.4 0.00 0.00 0.00 81 1018.9
20260504033126 24 92 3.2 9.7 0.00 0.00 0.00 82 1019.1
20260504031551 24 114 1.6 4.8 0.00 0.00 0.00 83 1019.0
20260504030052 24 128 1.6 4.8 0.00 0.00 0.00 83 1018.9
20260504024552 24 0 0.0 3.2 0.00 0.00 0.00 86 1018.9
20260504023101 25 106 1.6 3.2 0.00 0.00 0.00 86 1018.9
20260504021552 25 0 0.0 0.0 0.00 0.00 0.00 87 1018.7
20260504020058 24 0 0.0 0.0 0.00 0.00 0.00 88 1018.5
20260504014558 25 0 0.0 1.6 0.00 0.00 0.00 88 1018.3
20260504013106 25 0 0.0 3.2 0.00 0.00 0.00 88 1018.1
20260504011553 25 0 0.0 3.2 0.00 0.00 0.00 88 1018.0
20260504010111 25 0 0.0 3.2 0.00 0.00 0.00 87 1017.9
20260504004621 25 0 0.0 3.2 0.00 0.00 0.00 87 1017.9
20260504003053 25 0 0.0 3.2 0.00 0.00 0.00 88 1017.8
20260504001549 26 189 0.0 1.6 0.00 0.00 0.00 87 1017.7
20260504000050 26 0 0.0 0.0 0.00 0.00 0.00 87 1017.7
20260503234554 26 0 0.0 0.0 0.00 0.03 0.00 86 1017.5
20260503233051 26 0 0.0 0.0 0.00 0.03 0.00 85 1017.3
20260503231555 27 0 0.0 0.0 0.00 0.03 0.00 84 1017.4
20260503230058 27 0 0.0 0.0 0.00 0.03 0.00 83 1017.3
20260503224554 27 0 0.0 0.0 0.00 1.80 0.00 81 1017.1
20260503223059 28 0 0.0 0.0 0.00 1.80 0.00 80 1016.9
20260503221557 28 0 0.0 0.0 0.00 1.80 0.00 77 1016.7
20260503220055 28 0 0.0 3.2 0.00 1.80 0.00 77 1016.6
20260503214553 28 48 1.6 6.4 0.00 1.83 0.00 77 1016.7
20260503213106 28 55 3.2 12.9 0.00 1.83 0.00 77 1016.7
20260503211554 28 337 8.0 12.9 0.00 1.83 0.00 78 1016.7
20260503210109 28 347 8.0 16.1 0.00 1.83 0.00 77 1016.6
20260503204600 28 360 6.4 12.9 0.00 2.21 0.00 77 1016.5
20260503203104 29 20 9.7 17.7 0.00 2.21 0.00 77 1016.5